Preview of NWS' New Version of Forecast
This preview is not operational and should not be used for support decisions.

Regional Weather Roundup (RWR)

Issued by Philadelphia/Mt Holly (PHI)

                            
000
ASUS41 KPHI 220612
RWRPHI

REGIONAL WEATHER ROUNDUP
NATIONAL WEATHER SERVICE MOUNT HOLLY NJ
200 AM EDT FRI MAR 22 2019

NOTE:  "FAIR" INDICATES FEW OR NO CLOUDS BELOW 12,000 FEET WITH NO
SIGNIFICANT WEATHER AND/OR OBSTRUCTIONS TO VISIBILITY.

 * = STATION DOES NOT REPORT PRECIPITATION (E.G. RAIN, SNOW, ETC.) 
        OR FOG.

NJZ015>026-220700-
SOUTHERN NEW JERSEY
  
CITY           SKY/WX    TMP DP  RH WIND       PRES   REMARKS
POMONA         FOG       46  46 100 SE8       29.34F VSB 1/4          
6HR MIN TEMP:  46; 6HR MAX TEMP:  51; 6HR PCP:  0.15;                

WILDWOOD*      LGT RAIN  45  45 100 SE5       29.33F VSB 3/4          
MILLVILLE      CLOUDY    48  48 100 CALM      29.32F FOG              
WRIGHTSTOWN    HVY RAIN  46  46 100 NE18      29.35F FOG              
MOUNT HOLLY    CLOUDY    46  45  96 VRB5      29.37F                  
TRENTON        LGT RAIN  43  42  97 N12G24    29.40F                  
6HR MIN TEMP:  42; 6HR MAX TEMP:  46; 6HR PCP:  0.41;                


$$
NJZ001>014-220700-
NORTHERN NEW JERSEY
  
CITY           SKY/WX    TMP DP  RH WIND       PRES   REMARKS
SUSSEX         LGT RAIN  40  38  93 NE14      29.52F WCI  32          
ANDOVER*         N/A     39  37  92 N9G20     29.49F WCI  33          
MORRISTOWN     LGT RAIN  43  43 100 NE14      29.45F                  
NEWARK         LGT RAIN  43  42  97 NE24G35   29.44F                  
TETERBORO      RAIN      45  42  89 NE10G20   29.47F                  
CALDWELL       RAIN      44  43  96 NE12G20   29.47F FOG              
SOMERVILLE     LGT RAIN  44  42  93 NE17G23   29.42F                  
ALLAIRE*       LGT RAIN  45  44  97 NE22G30   29.38F                  
TOMS RIVER*    HVY RAIN  47  47 100 VRB5      29.40F FOG              

$$
PAZ043-044-047-054-055-060>062-066>071-220700-
EASTERN PENNSYLVANIA
  
CITY           SKY/WX    TMP DP  RH WIND       PRES   REMARKS
PHILADELPHIA   LGT RAIN  45  43  93 NE20G30   29.38F FOG              
6HR MIN TEMP:  45; 6HR MAX TEMP:  50; 6HR PCP:  0.27;                

NORTH PHILA    CLOUDY    46  42  86 NE17      29.41F FOG              
BLUE BELL*     CLOUDY    41  41 100 NE10G16   29.41F                  
DOYLESTOWN     LGT RAIN  43  41  93 NE12G21   29.41F                  
QUAKERTOWN*    CLOUDY    43  43 100 N9G17     29.44F FOG              
PERKASIE*      LGT RAIN  41  41 100 N10G17    29.43F                  
POTTSTOWN      LGT RAIN  42  42 100 N13       29.44F FOG              
LANCASTER      LGT RAIN  44  40  85 NW16      29.50F FOG              
COATESVILLE    RAIN      43  43 100 NW14G21   29.45F                  
READING        HVY RAIN  43  43 100 N15       29.48F                  
6HR MIN TEMP:  43; 6HR MAX TEMP:  48; 6HR PCP:  0.20;                

ALLENTOWN      RAIN      44  39  82 NE16G23   29.47F                  
6HR MIN TEMP:  43; 6HR MAX TEMP:  47; 6HR PCP:  0.22;                

MOUNT POCONO   RAIN      36  36 100 NE12G20   29.48F WCI  28          
6HR MIN TEMP:  35; 6HR MAX TEMP:  37; 6HR PCP:  0.14;                

HAZLETON       LGT RAIN  36  36 100 NW9G17    29.56F WCI  29          
LEHIGHTON      RAIN      43  41  93 NW7       29.53F                  
WILKES BARRE   LGT RAIN  39  37  92 N8        29.57F FOG     WCI  33  

$$
DEZALL-MDZ008-012-015-019-020-220700-
DELAWARE AND EASTERN MARYLAND
  
CITY           SKY/WX    TMP DP  RH WIND       PRES   REMARKS
WILMINGTON     LGT RAIN  47  45  93 N12       29.39F FOG              
6HR MIN TEMP:  47; 6HR MAX TEMP:  51; 6HR PCP:  0.41;                

DOVER          LGT RAIN  48  48 100 NW7       29.33F FOG              
GEORGETOWN     LGT RAIN  49  46  90 SW9       29.34F FOG              
6HR MIN TEMP:  48; 6HR MAX TEMP:  55; 6HR PCP:  0.08;                

EASTON         LGT RAIN  48  47  95 NW20G26   29.45R                  
PATUXENT       LGT RAIN  44  43  96 W22G30    29.48F                  
OCEAN CITY     CLOUDY    43  42  97 W15G25    29.37F                  
WALLOPS ISLAND LGT RAIN  45  42  89 W18G38    29.44F FOG              
CAMBRIDGE      CLOUDY    45  43  93 NW18G31   29.42F FOG              
SALISBURY      CLOUDY    44  44 100 W14       29.39F FOG              

$$
PAZ001-021-NYZ056-072-MDZ011-DCZ001-220700-
OTHER NEARBY LOCATIONS
  
CITY           SKY/WX    TMP DP  RH WIND       PRES   REMARKS
HARRISBURG     RAIN      44  40  85 N15G23    29.55F                  
STATE COLLEGE  DRIZZLE   36  36 100 CALM      29.65F                  
WILLIAMSPORT   LGT RAIN  39  37  92 W6        29.63F WCI  35          
BINGHAMTON     LGT SNOW  33  32  96 N14       29.62F FOG     WCI  23  
NEW YORK CITY  HVY RAIN  43  42  97 NE14G25   29.47F FOG              
BALTIMORE      LGT RAIN  45  42  89 NW22G35   29.47F                  
WASHINGTON DC  LGT RAIN  44  38  79 NW18G29   29.55R                  

$$